User: anonymous   Login
Location: Unspecified
(0.0000°N, 0.0000°E)
Time: 00:28:20
(UTC+02:00)
Language:

Cosmos 1538 Rocket - Orbit

View from above orbital plane
View from above orbital plane
View from above satellite
View from above satellite

Ground track
Ground track

The orbit data is extracted from the following two-line orbital elements,

1 14760U 84019B   16240.77820994  .00000057  00000-0  28633-4 0  9997
2 14760  74.0438 300.0798 0028812 233.6789 265.8522 14.35788878701470
Epoch (UTC): 27 August 2016 18:40:37
Eccentricity: 0.0028812
inclination: 74.0438°
perigee height: 752 km
apogee height: 793 km
right ascension of ascending node: 300.0798°
argument of perigee: 233.6789°
revolutions per day: 14.35788878
mean anomaly at epoch: 265.8522°
orbit number at epoch: 70147

The dashed part of the orbit path shows where the satellite is in the earth's shadow,  

DLR